Regional Weather Roundup
Issued by NWS

Home | Current Version | Previous Version | Graphics & Text | Print | Product List | Glossary On
Versions: 1 2 3 4 5 6 7 8 9 10 11 12 13 14 15 16 17 18 19 20 21 22 23 24 25 26 27 28 29 30 31 32 33 34 35 36 37 38 39 40 41 42 43 44 45 46 47 48 49 50
000
ASUS43 KMPX 292001
RWRMN
WEATHER ROUNDUP FOR MINNESOTA
NATIONAL WEATHER SERVICE TWIN CITIES/CHANHASSEN MN
300 PM CDT THU SEP 29 2016


NOTE: "FAIR" INDICATES FEW OR NO CLOUDS BELOW 12,000 FEET WITH NO
SIGNIFICANT WEATHER AND/OR OBSTRUCTIONS TO VISIBILITY. N/A MEANS
CURRENT SKY AND/OR WEATHER CONDITIONS ARE NOT AVAILABLE.

MNZ060>063-068>070-292100-
   Twin Cities Metro

CITY           SKY/WX    TMP DP  RH WIND       PRES   REMARKS
TWIN CITIES    MOSUNNY   66  51  58 N9        30.43F
ST PAUL        SUNNY     66  50  56 VRB3      30.43F
CRYSTAL        MOSUNNY   65  48  54 E7        30.42F
LAKEVILLE      SUNNY     64  50  59 N3        30.42F
EDEN PRAIRIE   MOSUNNY   66  50  56 N7        30.42F
LAKEVILLE      SUNNY     64  50  59 N3        30.42F
SOUTH ST PAUL  MOSUNNY   66  50  56 NE3       30.42F
LAKE ELMO      FAIR      64  52  63 NE3       30.44F
$$
MNZ001>005-007-008-013>017-022>024-027-028-292100-
   Northwest Minnesota

CITY           SKY/WX    TMP DP  RH WIND       PRES   REMARKS
BEMIDJI        CLOUDY    59  45  59 SE7       30.48S
HALLOCK        MOSUNNY   63  48  59 S9G16     30.43F
ROSEAU         PTSUNNY   64  50  59 S10       30.45F HAZE
WARROAD        MOSUNNY   61  50  67 NE8       30.47F
THIEF RVR FALL MOSUNNY   64  45  49 S10       30.45F
CROOKSTON      MOSUNNY   64  46  52 S8        30.44F
FOSSTON        PTSUNNY   64  45  48 SE7       30.46F
DETROIT LAKES  PTSUNNY   61  45  55 SE7       30.46F
MOORHEAD       SUNNY     64  45  48 S9        30.44F
PARK RAPIDS    CLOUDY    61  42  49 SE7       30.47F
MAHNOMEN       FAIR      63  44  51 E6        30.45F
$$
MNZ006-009>011-018-025>026-292100-
   North Central Minnesota

CITY           SKY/WX    TMP DP  RH WIND       PRES   REMARKS
BAUDETTE       CLOUDY    60  46  59 E6        30.48F
FLAG ISLAND    CLOUDY    57  45  62 SE9       30.47F
INTL FALLS     CLOUDY    58  47  66 SE5       30.50F
WASKISH        CLOUDY    61  48  63 SE5       30.49S
BIG FORK       CLOUDY    59  46  63 CALM      30.50F
GRAND RAPIDS   CLOUDY    58  46  64 VRB3      30.51F
ORR            CLOUDY    55  45  67 CALM      30.49S
COOK           CLOUDY    55  46  71 CALM      30.51F
WALKER         CLOUDY    57  48  73 E5        30.48F
$$
MNZ012-019>021-037-292100-
   Northeast Minnesota

CITY           SKY/WX    TMP DP  RH WIND       PRES   REMARKS
DULUTH         MOSUNNY   60  47  61 E9        30.49F
ELY            CLOUDY    55  45  67 CALM      30.50F
HIBBING        CLOUDY    57  46  66 E6        30.50F
EVELETH        CLOUDY    58  44  60 E3        30.51S
DULUTH HARBOR  CLOUDY    57  54  88 NE13      30.50F
TWO HARBORS    SUNNY     63  52  67 E10G16    30.49S
SILVER BAY     MOSUNNY   61  48  63 E8        30.49F
GRAND MARAIS     N/A     59  47  64 VRB3      30.50F
G MARAIS ARPRT CLOUDY    55  46  71 E3        30.52F
$$
MNZ029>031-032-039>041-046>048-054>057-064-292100-
   West Central Minnesota

CITY           SKY/WX    TMP DP  RH WIND       PRES   REMARKS
FERGUS FALLS   SUNNY     63  45  51 SE9       30.46F
MORRIS         SUNNY     66  46  48 SE9       30.43F
ALEXANDRIA     CLOUDY    61  46  57 E9        30.46F
ELBOW LAKE     CLOUDY    61  47  59 SE7       30.45F
WADENA         CLOUDY    59  45  58 SE7       30.46F
GLENWOOD       SUNNY     64  46  52 E7        30.45F
BENSON         MOSUNNY   64  45  48 SE5       30.44F
ORTONVILLE     MOSUNNY   66  46  48 SE8       30.42F
MADISON        MOSUNNY   66  50  55 SE7       30.42F
WILLMAR        PTSUNNY   64  50  59 NE8       30.45F
$$
MNZ033>034-036-042>043-049>051-058-059-292100-
   Central Minnesota

CITY           SKY/WX    TMP DP  RH WIND       PRES   REMARKS
ST CLOUD       PTSUNNY   64  49  57 VRB7      30.45F
SAUK CENTRE    CLOUDY    62  47  58 SE6       30.46F
PAYNESVILLE    PTSUNNY   62  46  55 E5        30.45F
AITKIN         CLOUDY    63  46  55 E5        30.47S
PINE RIVER     CLOUDY    59  48  67 SE3       30.50F
BRAINERD       CLOUDY    61  48  62 NE5       30.48F
STAPLES        CLOUDY    59  43  55 CALM      30.47F
LONG PRAIRIE   CLOUDY    61  45  55 CALM      30.46F
LITTLE FALLS   CLOUDY    59  45  58 E5        30.47S
LITCHFIELD     MOSUNNY   64  52  63 NE3       30.45F
BUFFALO        MOSUNNY   64  48  55 E8        30.45F
MAPLE LAKE     MOSUNNY   65  52  61 E5        30.45F
HUTCHINSON     MOSUNNY   64  50  61 NE5       30.45F
$$
MNZ037-044-045-052-053-292100-
   East Central Minnesota

CITY           SKY/WX    TMP DP  RH WIND       PRES   REMARKS
PRINCETON      PTSUNNY   66  52  59 NE8       30.45F
MORA           MOSUNNY   63  48  59 E3        30.47F
CAMBRIDGE      MOSUNNY   66  52  59 N5        30.43F
MOOSE LAKE     CLOUDY    61  48  63 NE5       30.46F
HINCKLEY       MOCLDY    63  50  63 NE5       30.46F
CLOQUET        CLOUDY    59  46  63 E7        30.49S
MCGREGOR       CLOUDY    59  48  67 NE6       30.48F
$$
MNZ071>073-080-081-089-090-097-098-292100-
   Southwest Minnesota

CITY           SKY/WX    TMP DP  RH WIND       PRES   REMARKS
MONTEVIDEO     MOSUNNY   70  48  46 S8        30.44F
GRANITE FALLS  MOSUNNY   66  50  55 S3        30.44F
CANBY          MOSUNNY   66  47  50 NE5       30.43F
MARSHALL       MOSUNNY   64  50  60 E9        30.42F
REDWOOD FALLS  SUNNY     67  47  48 CALM      30.42F
OLIVIA         MOSUNNY   66  48  52 E7        30.42F
PIPESTONE      SUNNY     64  46  52 S8        30.41F
WINDOM         MOSUNNY   64  48  55 NE5       30.42F
WORTHINGTON    SUNNY     65  48  54 E6        30.42F
JACKSON        MOSUNNY   64  45  48 N3        30.42F
TRACY          PTSUNNY   66  51  59 SE5       30.42F
$$
MNZ065>067-074>077-082>085-091>093-292100-
   South Central Minnesota

CITY           SKY/WX    TMP DP  RH WIND       PRES   REMARKS
MANKATO        SUNNY     65  50  58 VRB7      30.42F
ST JAMES       MOSUNNY   64  50  59 NE6       30.42F
FAIRMONT       MOSUNNY   67  49  52 NE9       30.41F
GLENCOE        SUNNY     65  53  65 NE5       30.43F
FARIBAULT      SUNNY     66  48  52 CALM      30.42F
OWATONNA       SUNNY     66  48  52 NE6       30.41F
WASECA         SUNNY     63  46  55 N5        30.42F
ALBERT LEA     SUNNY     68  46  45 N9        30.40F
$$
MNZ078>079-086>088-094>096-292100-
   Southeast Minnesota

CITY           SKY/WX    TMP DP  RH WIND       PRES   REMARKS
ROCHESTER      SUNNY     68  52  56 N12       30.40F
RED WING       SUNNY     70  46  43 CALM      30.39F
STANTON        SUNNY     67  49  52 N3        30.40F
DODGE CENTER   SUNNY     70  48  46 NE5       30.40F
WINONA         SUNNY     70  52  52 NW7       30.38F
AUSTIN         SUNNY     68  48  49 NE6       30.39F
PRESTON        SUNNY     66  51  58 NE12      30.38F
$$
ABBREVIATIONS USED IN REMARKS
   TC - TEMPERATURES IN CELSIUS
  WCI - WIND CHILL INDEX
   HX - HEAT INDEX
  VSB - VISIBILITY
$$




USA.gov is the U.S. government's official web portal to all federal, state and local government web resources and services.